Location: Hiram
(41.3130°N, 81.1440°W)
Time: 23:32:45
(UTC-04:00)

Amateur Radio Satellites - All Passes

Search period start: 29 August 2015 23:02
Search period end: 30 August 2015 23:02
Location: Hiram, 41.3130°N, 81.1440°W

Satellite Date Start Highest point End Downlink Frequencies (MHz)
Time Altitude Azimuth
ESTCUBE 1 29 Aug 23:14:21 23:18:16 31° 70° (ENE) 23:22:16 437.505/2401.250
DX 1 29 Aug 23:23:20 23:27:39 86° 77° (ENE) 23:32:01 434.975-435.025
DELFI C3 29 Aug 23:27:56 23:30:48 18° 268° (W) 23:33:33 145.870
AISAT 29 Aug 23:35:48 23:40:11 75° 76° (ENE) 23:44:37 437.250
Oscar 11 29 Aug 23:39:18 23:40:18 10° 273° (W) 23:41:01 145.826/435.025
UKube-1 29 Aug 23:39:44 23:44:02 69° 258° (WSW) 23:48:20 .
HUMSAT D 29 Aug 23:42:04 23:46:01 34° 264° (W) 23:49:59 437.325/437.525
UNISAT 6 29 Aug 23:42:33 23:47:02 50° 99° (E) 23:51:24 437.425
BEESAT 3 29 Aug 23:43:26 23:45:27 13° 39° (NE) 23:47:34 437.485
POLYITAN 1 29 Aug 23:43:49 23:46:46 18° 92° (E) 23:49:50 437.675
CUBEBUG 1 29 Aug 23:43:55 23:48:05 52° 73° (ENE) 23:52:19 437.445
POPSAT HIP 1 29 Aug 23:47:17 23:50:21 19° 92° (E) 23:53:32 437.405
Cosmos 2504 29 Aug 23:47:49 23:55:18 46° 88° (E) 00:03:18 435.465 / 435.565
DUCHIFAT 1 29 Aug 23:49:52 23:52:58 20° 93° (E) 23:56:11 145.980
SPROUT 29 Aug 23:49:53 23:52:50 19° 67° (ENE) 23:55:57 437.525
BEESAT 2 29 Aug 23:52:06 23:53:57 13° 39° (NE) 23:55:56 435.950
QB50P2 30 Aug 00:03:06 00:06:53 30° 96° (E) 00:10:42 145.880/145.840
VELOX 1 30 Aug 00:04:51 00:09:10 54° 260° (W) 00:13:30 145.980
NANOSAT C BR1 30 Aug 00:05:59 00:09:47 30° 96° (E) 00:13:36 145.865
AUBIESAT-1 30 Aug 00:07:46 00:11:44 55° 105° (ESE) 00:15:20 437.475
BUGSAT 1 30 Aug 00:07:49 00:10:53 20° 92° (E) 00:14:04 437.445
M-CUBED/EXP-1 PRIME 30 Aug 00:10:44 00:14:50 74° 106° (ESE) 00:18:33 437.505
RS-15 30 Aug 00:10:53 00:20:58 33° 30° (NNE) 00:31:36 29.354- 29.394
TIGRISAT 30 Aug 00:12:02 00:16:40 81° 284° (WNW) 00:21:08 435.000
QB50P1 30 Aug 00:18:26 00:22:33 43° 98° (E) 00:26:38 145.935-145.965
50 SAT 30 Aug 00:22:26 00:25:48 25° 265° (W) 00:29:06 437.505
ANTELSAT 30 Aug 00:28:14 00:32:44 53° 287° (WNW) 00:37:05 437.575/2403.000
ESTCUBE 1 30 Aug 00:51:28 00:55:11 24° 266° (W) 00:58:49 437.505/2401.250
TISAT 1 30 Aug 01:01:38 01:05:48 66° 74° (ENE) 01:10:00 437.305
YUBILEINY 30 Aug 01:06:01 01:08:21 11° 309° (NW) 01:09:58 435.215
SWISSCUBE 30 Aug 01:13:29 01:16:41 19° 65° (ENE) 01:20:02 437.505
POLYITAN 1 30 Aug 01:18:49 01:22:51 38° 288° (WNW) 01:26:50 437.675
BEESAT 3 30 Aug 01:19:53 01:23:56 77° 239° (WSW) 01:27:53 437.485
UNISAT 6 30 Aug 01:20:24 01:23:25 17° 295° (WNW) 01:26:14 437.425
POPSAT HIP 1 30 Aug 01:22:23 01:26:22 36° 289° (WNW) 01:30:17 437.405
CUBEBUG 1 30 Aug 01:22:32 01:24:50 14° 271° (W) 01:26:56 437.445
SPROUT 30 Aug 01:24:39 01:28:40 39° 263° (W) 01:32:43 437.525
DUCHIFAT 1 30 Aug 01:24:57 01:28:53 35° 289° (WNW) 01:32:46 145.980
SO-50 30 Aug 01:25:31 01:28:55 20° 111° (ESE) 01:32:31 436.795
BEESAT 2 30 Aug 01:28:31 01:32:36 84° 239° (WSW) 01:36:36 435.950
CUSAT 1 30 Aug 01:28:55 01:32:32 64° 283° (WNW) 01:37:25 437.405
QB50P2 30 Aug 01:39:09 01:42:40 24° 291° (WNW) 01:46:04 145.880/145.840
Cosmos 2504 30 Aug 01:40:09 01:47:40 39° 289° (WNW) 01:55:28 435.465 / 435.565
DANDE 30 Aug 01:40:51 01:44:05 81° 279° (W) 01:48:23 436.750
NANOSAT C BR1 30 Aug 01:42:01 01:45:29 23° 292° (WNW) 01:48:49 145.865
BUGSAT 1 30 Aug 01:42:34 01:46:28 35° 289° (WNW) 01:50:20 437.445
AUBIESAT-1 30 Aug 01:44:04 01:45:56 13° 303° (WNW) 01:47:35 437.475
M-CUBED/EXP-1 PRIME 30 Aug 01:48:06 01:48:57 10° 305° (NW) 01:49:36 437.505
AIST 2 30 Aug 01:49:23 01:53:14 34° 50° (NE) 01:57:02 435.215
ITUPSAT 1 30 Aug 01:49:32 01:53:53 37° 70° (ENE) 01:58:17 437.325
QB50P1 30 Aug 01:55:11 01:58:06 17° 294° (WNW) 02:00:51 145.935-145.965
GONETS M04 30 Aug 01:57:01 02:00:01 13° 76° (ENE) 02:03:44
Oscar 19 30 Aug 02:05:30 02:09:45 26° 93° (E) 02:14:05 437.125/150
RS-15 30 Aug 02:23:28 02:35:23 86° 58° (ENE) 02:47:42 29.354- 29.394
BEESAT 30 Aug 02:23:44 02:28:30 83° 75° (ENE) 02:33:18 436.000
Gurwin Techsat 1B 30 Aug 02:30:08 02:32:29 13° 87° (E) 02:35:08 435.225
KKS-1 30 Aug 02:35:03 02:38:00 18° 66° (ENE) 02:41:07 437.445
PCSat 30 Aug 02:38:03 02:43:05 42° 113° (ESE) 02:48:12 145.827
TISAT 1 30 Aug 02:41:23 02:42:05 10° 272° (W) 02:42:32 437.305
SWISSCUBE 30 Aug 02:49:34 02:54:12 49° 261° (W) 02:58:50 437.505
ITAMSAT 1 30 Aug 02:59:48 03:03:34 21° 92° (E) 03:07:29 435.822/435.867
SO-50 30 Aug 03:04:25 03:09:06 52° 308° (NW) 03:13:56 436.795
ITUPSAT 1 30 Aug 03:28:02 03:31:54 23° 267° (W) 03:35:40 437.325
AIST 2 30 Aug 03:28:17 03:31:38 23° 247° (WSW) 03:34:52 435.215
Oscar 19 30 Aug 03:44:25 03:49:14 39° 291° (WNW) 03:54:00 437.125/150
GONETS M04 30 Aug 03:46:52 03:55:29 73° 94° (E) 04:04:10
STARS 30 Aug 03:56:36 04:01:00 77° 74° (ENE) 04:05:26 437.465
JAS-2 30 Aug 03:57:40 04:04:25 45° 95° (E) 04:10:27 435.910
MOZHAYETS 4 30 Aug 04:07:38 04:11:17 24° 68° (ENE) 04:15:02
Gurwin Techsat 1B 30 Aug 04:07:50 04:13:09 75° 286° (WNW) 04:18:27 435.225
KKS-1 30 Aug 04:10:04 04:14:20 44° 261° (W) 04:18:37 437.445
Cosmos 2499 30 Aug 04:11:50 04:18:33 29° 83° (E) 04:25:48 435.465 / 435.565
PCSat 30 Aug 04:21:54 04:26:40 30° 311° (NW) 04:31:23 145.827
RS-15 30 Aug 04:37:25 04:46:47 26° 256° (WSW) 04:55:44 29.354- 29.394
ITAMSAT 1 30 Aug 04:38:24 04:43:22 48° 289° (WNW) 04:48:19 435.822/435.867
SO-50 30 Aug 04:49:26 04:50:53 11° 330° (NNW) 04:52:09 436.795
O/OREOS (USA 219) 30 Aug 04:56:59 05:00:22 20° 55° (NE) 05:03:51 437.305
HORYU 2 30 Aug 05:12:12 05:16:35 52° 100° (E) 05:20:55 437.375
AO-7 30 Aug 05:19:18 05:27:32 63° 103° (ESE) 05:35:44 29.400- 29.500
VERMONT LUNAR 30 Aug 05:26:20 05:29:02 31° 160° (SSE) 05:31:45 437.305
JAS-2 30 Aug 05:42:57 05:49:17 34° 296° (WNW) 05:54:53 435.910
MOZHAYETS 4 30 Aug 05:44:09 05:48:22 34° 264° (W) 05:52:33
GONETS M04 30 Aug 05:46:24 05:53:20 25° 296° (WNW) 06:00:00
Gurwin Techsat 1B 30 Aug 05:51:21 05:52:20 10° 302° (WNW) 05:53:00 435.225
CUBESAT XI-V 30 Aug 05:55:25 05:59:17 28° 69° (ENE) 06:03:13 437.345
Cosmos 2499 30 Aug 06:02:48 06:11:07 63° 282° (WNW) 06:19:54 435.465 / 435.565
STRAND 1 30 Aug 06:34:00 06:37:49 22° 65° (ENE) 06:41:46 437.568
O/OREOS (USA 219) 30 Aug 06:35:40 06:40:04 44° 253° (WSW) 06:44:24 437.305
CUTE-I 30 Aug 06:47:48 06:51:43 21° 92° (E) 06:55:47 437.470
HORYU 2 30 Aug 06:50:04 06:52:49 16° 296° (WNW) 06:55:25 437.375
VERMONT LUNAR 30 Aug 07:02:20 07:05:18 75° 176° (S) 07:08:16 437.305
PHONESAT 2.4 30 Aug 07:07:34 07:10:22 24° 154° (SSE) 07:13:10 2401.200-2431.200
AO-7 30 Aug 07:12:50 07:19:53 31° 302° (WNW) 07:26:44 29.400- 29.500
PRISM 30 Aug 07:14:01 07:17:40 32° 70° (ENE) 07:21:21 437.425
YUBILEINY 30 Aug 07:15:51 07:20:14 15° 56° (NE) 07:25:12 435.215
CUBESAT XI-V 30 Aug 07:32:40 07:36:40 29° 265° (W) 07:40:38 437.345
Cubesat XI-IV 30 Aug 07:41:12 07:46:31 67° 102° (ESE) 07:51:49 437.490
Cosmos 2499 30 Aug 08:02:42 08:06:37 13° 307° (NW) 08:09:59 435.465 / 435.565
Cosmos 2491 30 Aug 08:06:47 08:09:40 13° 76° (ENE) 08:13:16 435.465 / 435.565
STRAND 1 30 Aug 08:11:52 08:16:45 45° 261° (W) 08:21:39 437.568
BRITE-PL 30 Aug 08:13:17 08:17:59 29° 94° (E) 08:22:54 437.365/2234.400
CUTE-I 30 Aug 08:26:59 08:32:06 49° 289° (WNW) 08:37:11 437.470
VERMONT LUNAR 30 Aug 08:38:44 08:41:39 56° 193° (SSW) 08:44:36 437.305
HO-68 30 Aug 08:39:34 08:44:00 18° 88° (E) 08:48:48 435.675
PHONESAT 2.4 30 Aug 08:44:35 08:47:58 66° 169° (S) 08:51:20 2401.200-2431.200
PRISM 30 Aug 08:50:06 08:53:11 20° 267° (W) 08:56:10 437.425
GOMX 1 30 Aug 08:51:58 08:57:02 39° 96° (E) 09:02:11 467.674
AIST 1 30 Aug 08:53:44 08:57:52 54° 95° (E) 09:02:02
YUBILEINY 30 Aug 09:10:12 09:19:05 74° 80° (E) 09:27:52 435.215
CUTE 1.7 + AOD 2 30 Aug 09:13:18 09:16:33 22° 93° (E) 09:19:52 437.475
DOVE 4 30 Aug 09:15:00 09:19:58 39° 96° (E) 09:24:56 437.250
ISS 30 Aug 09:16:44 09:18:41 15° 132° (SE) 09:20:43 145.825
Cubesat XI-IV 30 Aug 09:22:41 09:26:08 17° 298° (WNW) 09:29:22 437.490
AUBIESAT-1 30 Aug 09:23:56 09:24:32 10° 56° (NE) 09:25:23 437.475
M-CUBED/EXP-1 PRIME 30 Aug 09:25:47 09:27:53 13° 58° (ENE) 09:30:10 437.505
CANX-2 30 Aug 09:26:34 09:30:25 34° 96° (E) 09:34:16 2200.000
Cosmos 2504 30 Aug 09:35:59 09:40:17 15° 56° (ENE) 09:45:01 435.465 / 435.565
TIGRISAT 30 Aug 09:38:18 09:38:45 10° 61° (ENE) 09:39:30 435.000
Oscar 11 30 Aug 09:48:33 09:50:12 12° 88° (E) 09:52:06 145.826/435.025
SEEDS 30 Aug 09:51:18 09:55:20 46° 98° (E) 09:59:22 437.485
BRITE-PL 30 Aug 09:51:28 09:56:33 40° 289° (WNW) 10:01:45 437.365/2234.400
ANTELSAT 30 Aug 09:52:16 09:54:51 15° 64° (ENE) 09:57:40 437.575/2403.000
SO-50 30 Aug 09:56:00 09:59:54 23° 42° (NE) 10:03:47 436.795
Cosmos 2491 30 Aug 09:56:32 10:05:09 72° 94° (E) 10:13:50 435.465 / 435.565
CINEMA 3 30 Aug 10:14:16 10:19:18 66° 101° (E) 10:24:10 145.822/145.860
VERMONT LUNAR 30 Aug 10:15:41 10:17:46 17° 207° (SSW) 10:19:49 437.305
COMPASS 1 30 Aug 10:16:16 10:20:25 71° 101° (E) 10:24:33 437.405
CUBEBUG 2 30 Aug 10:17:34 10:21:44 31° 95° (E) 10:25:50 437.445
CUSAT 1 30 Aug 10:21:22 10:26:30 20° 63° (ENE) 10:32:19 437.405
PHONESAT 2.4 30 Aug 10:22:23 10:25:47 73° 187° (S) 10:29:10 2401.200-2431.200
HO-68 30 Aug 10:25:25 10:32:40 82° 287° (WNW) 10:39:51 435.675
ZACube-1 30 Aug 10:26:11 10:29:38 22° 92° (E) 10:33:08 437.345
AAUSAT CUBESAT 2 30 Aug 10:28:08 10:32:17 82° 102° (ESE) 10:36:25 437.432
UWE-3 30 Aug 10:28:28 10:32:33 31° 95° (E) 10:36:35 435.000/436.395/437.385
GOMX 1 30 Aug 10:30:20 10:35:00 29° 292° (WNW) 10:39:36 467.674
FUNcube-1 30 Aug 10:32:18 10:35:57 25° 93° (E) 10:39:36 145.935
AIST 1 30 Aug 10:34:04 10:35:58 12° 293° (WNW) 10:37:41
DANDE 30 Aug 10:35:56 10:40:27 18° 63° (ENE) 10:45:47 436.750
POLYITAN 1 30 Aug 10:37:36 10:39:57 15° 65° (ENE) 10:42:29 437.675
POPSAT HIP 1 30 Aug 10:40:48 10:43:16 16° 65° (ENE) 10:45:56 437.405
UNISAT 6 30 Aug 10:41:04 10:45:31 45° 72° (ENE) 10:50:02 437.425
DUCHIFAT 1 30 Aug 10:42:55 10:45:24 16° 66° (ENE) 10:48:04 145.980
CUTE 1.7 + AOD 2 30 Aug 10:48:46 10:52:31 31° 289° (WNW) 10:56:12 437.475
ISS 30 Aug 10:51:35 10:54:47 59° 327° (NNW) 10:58:01 145.825
DOVE 4 30 Aug 10:53:03 10:57:32 28° 292° (WNW) 11:01:54 437.250
AUBIESAT-1 30 Aug 10:53:49 10:58:33 77° 71° (ENE) 11:03:15 437.475
QB50P2 30 Aug 10:56:19 10:59:39 24° 68° (ENE) 11:03:07 145.880/145.840
M-CUBED/EXP-1 PRIME 30 Aug 10:57:15 11:02:03 85° 252° (WSW) 11:06:51 437.505
NANOSAT C BR1 30 Aug 10:58:46 11:02:07 24° 68° (ENE) 11:05:34 145.865
BUGSAT 1 30 Aug 10:58:58 11:01:03 14° 65° (ENE) 11:03:19 437.445
CANX-2 30 Aug 11:02:57 11:06:09 20° 292° (WNW) 11:09:12 2200.000
DELFI C3 30 Aug 11:05:15 11:09:12 58° 100° (E) 11:13:08 145.870
YUBILEINY 30 Aug 11:08:27 11:15:07 24° 278° (W) 11:21:24 435.215
TIGRISAT 30 Aug 11:10:08 11:14:49 87° 73° (ENE) 11:19:34 435.000
QB50P1 30 Aug 11:11:11 11:14:57 32° 70° (ENE) 11:18:48 145.935-145.965
DX 1 30 Aug 11:12:59 11:15:24 15° 90° (E) 11:17:59 434.975-435.025
Oscar 11 30 Aug 11:22:35 11:26:51 57° 286° (WNW) 11:31:03 145.826/435.025
PCSat 30 Aug 11:25:43 11:30:42 36° 51° (NE) 11:35:41 145.827
HUMSAT D 30 Aug 11:25:48 11:29:44 36° 97° (E) 11:33:37 437.325/437.525
Cosmos 2504 30 Aug 11:25:50 11:34:25 74° 80° (E) 11:42:29 435.465 / 435.565
ANTELSAT 30 Aug 11:26:33 11:31:11 61° 260° (W) 11:35:51 437.575/2403.000
AISAT 30 Aug 11:27:48 11:30:10 14° 90° (E) 11:32:45 437.250
UKube-1 30 Aug 11:27:55 11:31:00 19° 93° (E) 11:34:12 .
SEEDS 30 Aug 11:28:13 11:30:47 15° 294° (WNW) 11:33:12 437.485
SO-50 30 Aug 11:35:58 11:40:49 57° 242° (WSW) 11:45:31 436.795
CINEMA 3 30 Aug 11:52:52 11:55:57 16° 296° (WNW) 11:58:47 145.822/145.860
CUBEBUG 2 30 Aug 11:54:19 11:58:19 27° 292° (WNW) 12:02:07 437.445
COMPASS 1 30 Aug 11:54:36 11:55:34 11° 296° (WNW) 11:56:18 437.405
VELOX 1 30 Aug 11:55:27 11:59:14 27° 95° (E) 12:03:06 145.980
Cosmos 2491 30 Aug 11:56:00 12:02:59 25° 296° (WNW) 12:09:42 435.465 / 435.565
50 SAT 30 Aug 11:56:55 12:00:25 32° 96° (E) 12:03:54 437.505
PHONESAT 2.4 30 Aug 12:00:24 12:03:26 30° 203° (SSW) 12:06:27 2401.200-2431.200
ZACube-1 30 Aug 12:01:59 12:06:07 35° 289° (WNW) 12:10:06 437.345
CUSAT 1 30 Aug 12:02:19 12:10:01 87° 80° (E) 12:18:19 437.405
UWE-3 30 Aug 12:05:07 12:08:58 26° 292° (WNW) 12:12:40 435.000/436.395/437.385
FUNcube-1 30 Aug 12:08:18 12:12:17 31° 290° (WNW) 12:16:09 145.935
POLYITAN 1 30 Aug 12:11:18 12:15:27 51° 260° (W) 12:19:40 437.675
POPSAT HIP 1 30 Aug 12:14:41 12:18:47 48° 261° (W) 12:22:56 437.405
HO-68 30 Aug 12:15:01 12:19:27 17° 305° (NW) 12:23:34 435.675
DUCHIFAT 1 30 Aug 12:16:46 12:20:51 47° 261° (W) 12:24:58 145.980
DANDE 30 Aug 12:17:06 12:24:31 81° 80° (E) 12:33:03 436.750
UNISAT 6 30 Aug 12:19:13 12:22:33 19° 269° (W) 12:25:46 437.425
ISS 30 Aug 12:29:29 12:31:42 17° 346° (NNW) 12:33:55 145.825
QB50P2 30 Aug 12:31:39 12:35:25 30° 264° (W) 12:39:11 145.880/145.840
AUBIESAT-1 30 Aug 12:31:51 12:33:46 12° 267° (W) 12:35:23 437.475
BUGSAT 1 30 Aug 12:32:12 12:36:08 49° 261° (W) 12:40:08 437.445
NANOSAT C BR1 30 Aug 12:34:05 12:37:50 29° 265° (W) 12:41:34 145.865
DELFI C3 30 Aug 12:42:19 12:43:49 12° 295° (WNW) 12:45:07 145.870
ESTCUBE 1 30 Aug 12:42:57 12:47:26 69° 101° (ESE) 12:51:55 437.505/2401.250
QB50P1 30 Aug 12:47:36 12:50:53 21° 267° (W) 12:54:07 145.935-145.965
DX 1 30 Aug 12:47:43 12:51:59 50° 288° (WNW) 12:56:12 434.975-435.025
TISAT 1 30 Aug 12:48:56 12:49:27 10° 88° (E) 12:50:15 437.305
HUMSAT D 30 Aug 13:02:07 13:05:13 19° 293° (WNW) 13:08:11 437.325/437.525
AISAT 30 Aug 13:02:44 13:07:07 53° 287° (WNW) 13:11:29 437.250
UKube-1 30 Aug 13:03:15 13:07:17 37° 289° (WNW) 13:11:16 .
CUBEBUG 1 30 Aug 13:08:35 13:13:00 76° 284° (WNW) 13:17:24 437.445
PCSat 30 Aug 13:09:14 13:14:05 34° 249° (WSW) 13:18:53 145.827
SPROUT 30 Aug 13:11:01 13:14:59 34° 97° (E) 13:18:58 437.525
Cosmos 2504 30 Aug 13:19:27 13:25:47 23° 279° (W) 13:31:33 435.465 / 435.565
Oscar 19 30 Aug 13:22:13 13:26:55 37° 69° (ENE) 13:31:42 437.125/150
VELOX 1 30 Aug 13:31:54 13:35:45 28° 291° (WNW) 13:39:31 145.980
50 SAT 30 Aug 13:32:01 13:34:44 18° 292° (WNW) 13:37:19 437.505
CUSAT 1 30 Aug 13:46:28 13:51:58 20° 275° (W) 13:57:19 437.405
Gurwin Techsat 1B 30 Aug 13:50:38 13:54:39 23° 65° (ENE) 13:58:48 435.225
GONETS M04 30 Aug 13:57:18 14:05:11 36° 70° (ENE) 14:13:13
DANDE 30 Aug 14:01:35 14:07:15 22° 273° (W) 14:13:02 436.750
ISS 30 Aug 14:07:14 14:09:03 14° 6° (N) 14:10:54 145.825
JAS-2 30 Aug 14:09:03 14:14:56 26° 61° (ENE) 14:21:07 435.910
ITAMSAT 1 30 Aug 14:17:38 14:22:09 32° 68° (ENE) 14:26:45 435.822/435.867
TISAT 1 30 Aug 14:21:29 14:25:44 68° 286° (WNW) 14:29:58 437.305
ESTCUBE 1 30 Aug 14:21:46 14:23:48 13° 297° (WNW) 14:25:38 437.505/2401.250
BEESAT 30 Aug 14:24:43 14:28:14 21° 92° (E) 14:31:53 436.000
AO-7 30 Aug 14:29:08 14:34:32 20° 52° (NE) 14:40:14 29.400- 29.500
SPROUT 30 Aug 14:47:31 14:50:52 21° 292° (WNW) 14:54:07 437.525
SWISSCUBE 30 Aug 14:49:45 14:54:14 41° 98° (E) 14:58:43 437.505
Oscar 19 30 Aug 15:02:01 15:06:23 26° 266° (W) 15:10:41 437.125/150
BEESAT 3 30 Aug 15:13:10 15:15:55 18° 112° (ESE) 15:18:49 437.485
BEESAT 2 30 Aug 15:22:55 15:25:36 18° 112° (ESE) 15:28:26 435.950
ITUPSAT 1 30 Aug 15:27:16 15:32:03 89° 95° (E) 15:36:50 437.325
Gurwin Techsat 1B 30 Aug 15:29:15 15:34:21 47° 261° (W) 15:39:29 435.225
ISS 30 Aug 15:43:13 15:46:12 32° 26° (NNE) 15:49:10 145.825
STARS 30 Aug 15:47:47 15:50:05 14° 90° (E) 15:52:35 437.465
JAS-2 30 Aug 15:51:38 15:59:15 76° 258° (WSW) 16:07:10 435.910
GONETS M04 30 Aug 15:53:56 16:02:21 51° 270° (W) 16:10:41
Cosmos 2499 30 Aug 15:54:26 16:02:54 52° 74° (ENE) 16:10:51 435.465 / 435.565
ITAMSAT 1 30 Aug 15:57:03 16:01:39 31° 264° (W) 16:06:12 435.822/435.867
KKS-1 30 Aug 16:01:04 16:05:09 34° 97° (E) 16:09:14 437.445
BEESAT 30 Aug 16:01:49 16:06:17 40° 289° (WNW) 16:10:42 436.000
HORYU 2 30 Aug 16:10:12 16:14:31 49° 73° (ENE) 16:18:54 437.375
AO-7 30 Aug 16:17:55 16:26:16 83° 72° (ENE) 16:34:39 29.400- 29.500
SWISSCUBE 30 Aug 16:28:12 16:31:51 22° 294° (WNW) 16:35:23 437.505
RS-15 30 Aug 16:46:54 16:57:20 56° 113° (ESE) 17:08:15 29.354- 29.394
BEESAT 3 30 Aug 16:49:43 16:53:35 41° 308° (NW) 16:57:29 437.485
BEESAT 2 30 Aug 16:59:26 17:03:21 43° 308° (NW) 17:07:19 435.950
ITUPSAT 1 30 Aug 17:07:59 17:09:18 11° 299° (WNW) 17:10:22 437.325
ISS 30 Aug 17:19:38 17:22:34 32° 223° (SW) 17:25:30 145.825
STARS 30 Aug 17:22:33 17:26:54 53° 287° (WNW) 17:31:13 437.465
AIST 2 30 Aug 17:24:56 17:29:08 71° 120° (ESE) 17:33:23 435.215
Cubesat XI-IV 30 Aug 17:26:18 17:29:08 15° 61° (ENE) 17:32:11 437.490
KKS-1 30 Aug 17:38:01 17:41:37 23° 293° (WNW) 17:45:07 437.445
MOZHAYETS 4 30 Aug 17:38:42 17:43:11 55° 100° (E) 17:47:39
JAS-2 30 Aug 17:41:40 17:45:42 14° 278° (W) 17:49:14 435.910
Cosmos 2499 30 Aug 17:48:09 17:55:45 34° 275° (W) 18:02:47 435.465 / 435.565
HORYU 2 30 Aug 17:48:39 17:51:29 16° 269° (W) 17:54:09 437.375
CUTE-I 30 Aug 18:09:28 18:14:14 35° 69° (ENE) 18:19:04 437.470
AO-7 30 Aug 18:14:04 18:20:07 21° 270° (W) 18:25:46 29.400- 29.500
RS-15 30 Aug 18:59:33 19:10:06 47° 318° (NW) 19:21:00 29.354- 29.394
AIST 1 30 Aug 19:01:59 19:04:16 14° 68° (ENE) 19:06:44
Cubesat XI-IV 30 Aug 19:03:20 19:08:40 76° 256° (WSW) 19:14:01 437.490
AIST 2 30 Aug 19:05:34 19:08:13 15° 320° (NW) 19:10:45 435.215
O/OREOS (USA 219) 30 Aug 19:09:41 19:12:58 21° 102° (ESE) 19:16:25 437.305
HO-68 30 Aug 19:10:08 19:13:48 15° 53° (NE) 19:17:49 435.675
MOZHAYETS 4 30 Aug 19:17:14 19:20:00 16° 295° (WNW) 19:22:35
BRITE-PL 30 Aug 19:25:05 19:28:41 26° 67° (ENE) 19:32:34 437.365/2234.400
CUBESAT XI-V 30 Aug 19:28:21 19:32:59 69° 102° (ESE) 19:37:38 437.345
CUTE-I 30 Aug 19:49:44 19:54:22 29° 265° (W) 19:58:57 437.470
GOMX 1 30 Aug 20:00:33 20:04:37 36° 70° (ENE) 20:09:02 467.674
CUTE 1.7 + AOD 2 30 Aug 20:06:46 20:09:30 17° 67° (ENE) 20:12:22 437.475
Cosmos 2491 30 Aug 20:07:06 20:14:54 36° 70° (ENE) 20:22:50 435.465 / 435.565
YUBILEINY 30 Aug 20:19:10 20:23:39 16° 78° (ENE) 20:28:43 435.215
CANX-2 30 Aug 20:19:39 20:23:11 26° 69° (ENE) 20:26:47 2200.000
DOVE 4 30 Aug 20:20:44 20:24:54 36° 70° (ENE) 20:29:21 437.250
STRAND 1 30 Aug 20:22:01 20:27:04 60° 101° (E) 20:32:07 437.568
PRISM 30 Aug 20:30:49 20:34:50 52° 100° (E) 20:38:51 437.425
AIST 1 30 Aug 20:38:06 20:42:17 48° 266° (W) 20:46:28
SEEDS 30 Aug 20:43:17 20:47:04 33° 71° (ENE) 20:50:54 437.485
Oscar 11 30 Aug 20:44:40 20:45:38 11° 63° (ENE) 20:46:51 145.826/435.025
O/OREOS (USA 219) 30 Aug 20:47:55 20:52:10 38° 299° (WNW) 20:56:27 437.305
HO-68 30 Aug 20:53:22 21:00:30 75° 72° (ENE) 21:07:42 435.675
BRITE-PL 30 Aug 21:03:24 21:07:10 28° 267° (W) 21:11:08 437.365/2234.400
COMPASS 1 30 Aug 21:07:10 21:11:12 47° 73° (ENE) 21:15:15 437.405
CUBESAT XI-V 30 Aug 21:07:40 21:09:55 13° 296° (WNW) 21:11:57 437.345
CINEMA 3 30 Aug 21:15:36 21:20:10 58° 74° (ENE) 21:24:58 145.822/145.860
CUBEBUG 2 30 Aug 21:15:41 21:19:33 27° 69° (ENE) 21:23:34 437.445
RS-15 30 Aug 21:18:00 21:26:26 23° 350° (N) 21:35:03 29.354- 29.394
AAUSAT CUBESAT 2 30 Aug 21:18:30 21:22:34 53° 74° (ENE) 21:26:40 437.432
ZACube-1 30 Aug 21:22:23 21:25:32 19° 66° (ENE) 21:28:50 437.345
UWE-3 30 Aug 21:25:31 21:29:19 27° 69° (ENE) 21:33:16 435.000/436.395/437.385
FUNcube-1 30 Aug 21:28:09 21:31:30 21° 67° (ENE) 21:35:00 145.935
GOMX 1 30 Aug 21:39:26 21:42:57 22° 269° (W) 21:46:34 467.674
CUTE 1.7 + AOD 2 30 Aug 21:41:00 21:45:06 43° 262° (W) 21:49:13 437.475
DELFI C3 30 Aug 21:52:13 21:55:54 35° 72° (ENE) 21:59:37 145.870
CANX-2 30 Aug 21:55:19 21:59:02 27° 265° (W) 22:02:42 2200.000
DOVE 4 30 Aug 21:59:06 22:02:48 23° 269° (W) 22:06:35 437.250
STRAND 1 30 Aug 22:02:27 22:05:51 18° 297° (WNW) 22:09:04 437.568
Cosmos 2491 30 Aug 22:03:44 22:12:06 51° 270° (W) 22:20:24 435.465 / 435.565
PRISM 30 Aug 22:07:45 22:09:53 14° 295° (WNW) 22:11:51 437.425
DX 1 30 Aug 22:09:19 22:11:29 14° 64° (ENE) 22:13:50 434.975-435.025
YUBILEINY 30 Aug 22:10:30 22:19:16 84° 95° (E) 22:28:09 435.215
Oscar 11 30 Aug 22:16:54 22:21:16 76° 259° (WSW) 22:25:38 145.826/435.025
HUMSAT D 30 Aug 22:17:30 22:21:06 27° 70° (ENE) 22:24:49 437.325/437.525
SEEDS 30 Aug 22:19:39 22:22:57 21° 267° (W) 22:26:08 437.485
UKube-1 30 Aug 22:23:14 22:26:02 18° 66° (ENE) 22:28:59 .
AISAT 30 Aug 22:26:13 22:28:24 14° 64° (ENE) 22:30:48 437.250
50 SAT 30 Aug 22:40:47 22:43:37 20° 68° (ENE) 22:46:34 437.505
HO-68 30 Aug 22:43:54 22:49:02 20° 271° (W) 22:53:53 435.675
COMPASS 1 30 Aug 22:44:45 22:47:09 14° 270° (W) 22:49:24 437.405
CUBEBUG 2 30 Aug 22:52:01 22:56:08 31° 265° (W) 23:00:20 437.445
VELOX 1 30 Aug 22:53:16 22:56:49 25° 68° (ENE) 23:00:29 145.980
CINEMA 3 30 Aug 22:55:07 22:57:51 15° 272° (W) 23:00:27 145.822/145.860
AAUSAT CUBESAT 2 30 Aug 22:56:36 22:58:33 13° 271° (W) 23:00:18 437.432
